Location: Davayat
(45.9471°N, 3.1105°E)
Time: 17:42:13
(UTC+00:00)

Meteor 1-4 Rocket - Pass Details

Date: 01 December 2020
Orbit: 449 x 500 km, 81.2° (Epoch: 22 January)

Event Time Altitude Azimuth Distance (km) Brightness Sun altitude
Rises 17:29:27 0° 190° (S) 2,522 6.6 -14.3°
Reaches altitude 10° 17:31:33 10° 190° (S) 1,639 5.6 -14.7°
Maximum altitude 17:35:08 88° 277° (W) 476 2.4 -15.3°
Enters shadow 17:38:34 11° 10° (N) 1,570 4.9 -15.9°
